Location: Unspecified
(0.0000°N, 0.0000°E)
Time: 13:53:21
(UTC+00:00)

ISS - Pass Details

Date: 20 September 2019
Orbit: 411 x 421 km, 51.6° (Epoch: 18 September)

Event Time Altitude Azimuth Distance (km) Brightness Sun altitude
Exits shadow 04:26:49 38° 18° (NNE) 651 -2.7 -21.7°
Maximum altitude 04:27:30 44° 54° (NE) 580 -2.8 -21.5°
Drops below altitude 10° 04:30:44 10° 129° (SE) 1,491 -0.3 -20.7°
Sets 04:32:53 0° 135° (SE) 2,358 0.7 -20.2°
